,,PA_Meas_PMT16A,,PR_Meas_QMR101_102,,RH_Meas_QMH101,,SR_Meas_QMS101,,TA_Meas_QMH101,,GenWind,,GenWind,
time,status,PA,status,PR,status,RH,status,SR,status,TA,status,DirAvg,status,SpdAvg,
2012-06-01, 00:00:05,VALID,917.58,VALID,0,VALID,95.6129,VALID,0,VALID,19.3113,VALID,55,VALID,0.269531,
2012-06-01, 00:01:05,VALID,917.583,VALID,0,VALID,95.5824,VALID,0,VALID,19.3113,VALID,55,VALID,0.503516,
2012-06-01, 00:02:05,VALID,917.521,VALID,0,VALID,95.5062,VALID,0.107441,VALID,19.2918,VALID,55,VALID,0.504297,
2012-06-01, 00:03:05,VALID,917.53,VALID,0,VALID,95.5519,VALID,0,VALID,19.2918,VALID,55,VALID,0.626953,
2012-06-01, 00:04:05,VALID,917.531,VALID,0,VALID,95.5519,VALID,0,VALID,19.2918,VALID,55,VALID,0.420703,
2012-06-01, 00:05:05,VALID,917.505,VALID,0,VALID,95.59,VALID,0,VALID,19.2723,VALID,55,VALID,0.392969,
2012-06-01, 00:06:05,VALID,917.479,VALID,0,VALID,95.6281,VALID,0,VALID,19.2723,VALID,55,VALID,0.622656,
2012-06-01, 00:07:05,VALID,917.473,VALID,0,VALID,95.6357,VALID,0,VALID,19.2723,VALID,33,VALID,1.0043,
2012-06-01, 00:08:05,VALID,917.5,VALID,0,VALID,95.6967,VALID,0,VALID,19.2723,VALID,33,VALID,0.449609,
2012-06-01, 00:09:05,VALID,917.497,VALID,0,VALID,95.7425,VALID,0,VALID,19.2918,VALID,33,VALID,0.209375,
2012-06-01, 00:10:05,VALID,917.511,VALID,0,VALID,95.6434,VALID,0,VALID,19.2528,VALID,33,VALID,0.611328,
2012-06-01, 00:11:05,VALID,917.464,VALID,0,VALID,95.5824,VALID,0,VALID,19.2319,VALID,33,VALID,0.0953125,
2012-06-01, 00:12:05,VALID,917.44,VALID,0,VALID,95.5595,VALID,0,VALID,19.2319,VALID,33,VALID,0.362891,
2012-06-01, 00:13:05,VALID,917.375,VALID,0,VALID,95.5214,VALID,0,VALID,19.2319,VALID,33,VALID,0.329297,
2012-06-01, 00:14:05,VALID,917.395,VALID,0,VALID,95.4071,VALID,0,VALID,19.2334,VALID,34,VALID,0.582812,
2012-06-01, 00:15:05,VALID,917.369,VALID,0,VALID,95.4147,VALID,0,VALID,19.2124,VALID,34,VALID,0.136719,
2012-06-01, 00:16:05,VALID,917.388,VALID,0,VALID,95.3613,VALID,0,VALID,19.2528,VALID,35,VALID,0,
2012-06-01, 00:17:05,VALID,917.373,VALID,0,VALID,95.3537,VALID,0,VALID,19.2723,VALID,35,VALID,0,
2012-06-01, 00:18:05,VALID,917.351,VALID,0,VALID,95.4299,VALID,0,VALID,19.2918,VALID,34,VALID,0,
2012-06-01, 00:19:05,VALID,917.331,VALID,0,VALID,95.5062,VALID,0.107441,VALID,19.2918,VALID,35,VALID,0,
2012-06-01, 00:20:05,VALID,917.325,VALID,0,VALID,95.4604,VALID,0,VALID,19.2918,VALID,35,VALID,0.147656,
2012-06-01, 00:21:05,VALID,917.333,VALID,0,VALID,95.5214,VALID,0,VALID,19.2918,VALID,34,VALID,0,
2012-06-01, 00:22:05,VALID,917.336,VALID,0,VALID,95.5671,VALID,0,VALID,19.3113,VALID,35,VALID,0,
2012-06-01, 00:23:05,VALID,917.312,VALID,0,VALID,95.5671,VALID,0,VALID,19.3113,VALID,35,VALID,0,
2012-06-01, 00:24:05,VALID,917.293,VALID,0,VALID,95.5138,VALID,0,VALID,19.2918,VALID,34,VALID,0,
2012-06-01, 00:25:05,VALID,917.275,VALID,0,VALID,95.5138,VALID,0,VALID,19.3113,VALID,34,VALID,0.692578,
2012-06-01, 00:26:05,VALID,917.256,VALID,0,VALID,95.6205,VALID,0,VALID,19.3099,VALID,34,VALID,0.332812,
2012-06-01, 00:27:05,VALID,917.231,VALID,0,VALID,95.5519,VALID,0,VALID,19.3113,VALID,65,VALID,0.766797,
2012-06-01, 00:28:05,VALID,917.237,VALID,0,VALID,95.4071,VALID,0,VALID,19.2918,VALID,65,VALID,0.685156,
2012-06-01, 00:29:05,VALID,917.217,VALID,0,VALID,95.3842,VALID,0,VALID,19.2918,VALID,65,VALID,1.14766,
2012-06-01, 00:30:05,VALID,917.17,VALID,0,VALID,95.3079,VALID,0,VALID,19.2319,VALID,65,VALID,1.1375,
2012-06-01, 00:31:05,VALID,917.176,VALID,0,VALID,95.2317,VALID,0,VALID,19.2334,VALID,65,VALID,1.2457,
2012-06-01, 00:32:05,VALID,917.126,VALID,0,VALID,95.1174,VALID,0,VALID,19.2124,VALID,65,VALID,1.39766,
2012-06-01, 00:33:05,VALID,917.122,VALID,0,VALID,94.9954,VALID,0,VALID,19.2319,VALID,65,VALID,1.12969,
2012-06-01, 00:34:05,VALID,917.128,VALID,0,VALID,95.0411,VALID,0,VALID,19.2528,VALID,65,VALID,0.709375,
2012-06-01, 00:35:05,VALID,917.16,VALID,0,VALID,95.186,VALID,0,VALID,19.2528,VALID,87,VALID,1.05742,
2012-06-01, 00:36:05,VALID,917.152,VALID,0,VALID,95.2698,VALID,0,VALID,19.2139,VALID,102,VALID,0.926953,
2012-06-01, 00:37:05,VALID,917.145,VALID,0,VALID,95.3766,VALID,0,VALID,19.2139,VALID,112,VALID,0.360938,
2012-06-01, 00:38:05,VALID,917.151,VALID,0,VALID,95.4528,VALID,0,VALID,19.2139,VALID,112,VALID,0.221875,
2012-06-01, 00:39:05,VALID,917.093,VALID,0,VALID,95.4985,VALID,0,VALID,19.2139,VALID,112,VALID,0.0121094,
2012-06-01, 00:40:05,VALID,917.09,VALID,0,VALID,95.5976,VALID,0,VALID,19.1944,VALID,112,VALID,0.0046875,
2012-06-01, 00:41:05,VALID,917.083,VALID,0,VALID,95.6586,VALID,0.107441,VALID,19.1944,VALID,112,VALID,0.225391,
2012-06-01, 00:42:05,VALID,917.074,VALID,0,VALID,95.712,VALID,0,VALID,19.1944,VALID,112,VALID,0.340625,
2012-06-01, 00:43:05,VALID,917.063,VALID,0,VALID,95.7654,VALID,0,VALID,19.2139,VALID,112,VALID,0,
2012-06-01, 00:44:05,VALID,917.065,VALID,0,VALID,95.8645,VALID,0,VALID,19.1734,VALID,112,VALID,0.484375,
2012-06-01, 00:45:05,VALID,917.06,VALID,0,VALID,95.7958,VALID,0,VALID,19.1944,VALID,112,VALID,0.685938,
2012-06-01, 00:46:05,VALID,917.081,VALID,0,VALID,95.7654,VALID,0,VALID,19.1944,VALID,112,VALID,0.534766,
2012-06-01, 00:47:05,VALID,917.087,VALID,0,VALID,95.8568,VALID,0,VALID,19.1929,VALID,112,VALID,0.53125,
2012-06-01, 00:48:05,VALID,917.091,VALID,0,VALID,95.773,VALID,0,VALID,19.1749,VALID,112,VALID,0.577734,
2012-06-01, 00:49:05,VALID,917.09,VALID,0,VALID,95.7958,VALID,0,VALID,19.1749,VALID,112,VALID,0,
2012-06-01, 00:50:05,VALID,917.106,VALID,0,VALID,95.8111,VALID,0,VALID,19.1554,VALID,112,VALID,0,
2012-06-01, 00:51:05,VALID,917.104,VALID,0,VALID,95.8645,VALID,0,VALID,19.1554,VALID,112,VALID,0,
2012-06-01, 00:52:05,VALID,917.126,VALID,0,VALID,95.895,VALID,0,VALID,19.1554,VALID,112,VALID,0,
2012-06-01, 00:53:05,VALID,917.102,VALID,0,VALID,95.773,VALID,0,VALID,19.1359,VALID,112,VALID,0.662109,
2012-06-01, 00:54:05,VALID,917.112,VALID,0,VALID,95.8111,VALID,0,VALID,19.0774,VALID,112,VALID,0.433594,
2012-06-01, 00:55:05,VALID,917.138,VALID,0,VALID,95.8873,VALID,0.107441,VALID,19.0564,VALID,112,VALID,0.2,
2012-06-01, 00:56:05,VALID,917.114,VALID,0,VALID,95.8416,VALID,0,VALID,19.0774,VALID,112,VALID,0.592578,
2012-06-01, 00:57:05,VALID,917.105,VALID,0,VALID,95.9331,VALID,0,VALID,19.0579,VALID,112,VALID,0.00195313,
2012-06-01, 00:58:05,VALID,917.122,VALID,0,VALID,96.0093,VALID,0,VALID,19.0579,VALID,112,VALID,0.0875,
2012-06-01, 00:59:05,VALID,917.138,VALID,0,VALID,96.0627,VALID,0,VALID,19.0579,VALID,112,VALID,0.480469,
2012-06-01, 01:00:05,VALID,917.13,VALID,0,VALID,96.0932,VALID,0,VALID,19.0579,VALID,76,VALID,0.923047,
2012-06-01, 01:01:05,VALID,917.104,VALID,0,VALID,96.0245,VALID,0,VALID,19.0384,VALID,76,VALID,0.65625,
2012-06-01, 01:02:04,VALID,917.157,VALID,0,VALID,95.9178,VALID,0,VALID,19.0189,VALID,76,VALID,0.825781,
2012-06-01, 01:03:04,VALID,917.144,VALID,0,VALID,95.8645,VALID,0,VALID,19.0189,VALID,76,VALID,0.614453,
2012-06-01, 01:04:04,VALID,917.106,VALID,0,VALID,95.8492,VALID,0,VALID,19.0384,VALID,76,VALID,0.25,
2012-06-01, 01:05:04,VALID,917.117,VALID,0,VALID,95.8263,VALID,0,VALID,19.0384,VALID,76,VALID,0.458594,
2012-06-01, 01:06:04,VALID,917.12,VALID,0,VALID,95.8873,VALID,0,VALID,19.0384,VALID,76,VALID,0.457031,
2012-06-01, 01:07:04,VALID,917.103,VALID,0,VALID,95.9483,VALID,0,VALID,19.0384,VALID,76,VALID,0.294141,
2012-06-01, 01:08:04,VALID,917.134,VALID,0,VALID,95.9941,VALID,0,VALID,19.0398,VALID,76,VALID,0.0269531,
2012-06-01, 01:09:04,VALID,917.091,VALID,0,VALID,96.0322,VALID,0,VALID,19.0203,VALID,76,VALID,0.686328,
2012-06-01, 01:10:04,VALID,917.133,VALID,0,VALID,96.1008,VALID,0,VALID,19.0008,VALID,76,VALID,0.523438,
2012-06-01, 01:11:04,VALID,917.089,VALID,0,VALID,96.2075,VALID,0,VALID,18.9799,VALID,76,VALID,0.442969,
2012-06-01, 01:12:04,VALID,917.078,VALID,0,VALID,96.3219,VALID,0,VALID,18.9994,VALID,76,VALID,0.506641,
2012-06-01, 01:13:04,VALID,917.054,VALID,0,VALID,96.3219,VALID,0,VALID,18.9799,VALID,76,VALID,0.506641,
2012-06-01, 01:14:04,VALID,917.052,VALID,0,VALID,96.3676,VALID,0,VALID,18.9409,VALID,76,VALID,1.00156,
2012-06-01, 01:15:04,VALID,917.049,VALID,0,VALID,96.4286,VALID,0,VALID,18.9409,VALID,76,VALID,0.763672,
2012-06-01, 01:16:04,VALID,917.036,VALID,0,VALID,96.5048,VALID,0,VALID,18.9619,VALID,76,VALID,0.24375,
2012-06-01, 01:17:04,VALID,917.054,VALID,0,VALID,96.6115,VALID,0,VALID,18.9799,VALID,76,VALID,0.188672,
2012-06-01, 01:18:04,VALID,917.011,VALID,0,VALID,96.6192,VALID,0,VALID,18.9604,VALID,76,VALID,0.201953,
2012-06-01, 01:19:04,VALID,917.013,VALID,0,VALID,96.6573,VALID,0,VALID,18.9604,VALID,76,VALID,0.0457031,
2012-06-01, 01:20:04,VALID,916.993,VALID,0,VALID,96.6802,VALID,0,VALID,18.9409,VALID,76,VALID,0,
2012-06-01, 01:21:04,VALID,917.034,VALID,0,VALID,96.7259,VALID,0,VALID,18.9409,VALID,76,VALID,0.218359,
2012-06-01, 01:22:04,VALID,917.066,VALID,0,VALID,96.8021,VALID,0,VALID,18.9604,VALID,76,VALID,0,
2012-06-01, 01:23:04,VALID,917.07,VALID,0,VALID,96.7945,VALID,0,VALID,18.9604,VALID,76,VALID,0,
2012-06-01, 01:24:04,VALID,917.038,VALID,0,VALID,96.7869,VALID,0,VALID,18.9409,VALID,76,VALID,0,
2012-06-01, 01:25:04,VALID,917.052,VALID,0,VALID,96.7488,VALID,0,VALID,18.9409,VALID,76,VALID,0.276172,
2012-06-01, 01:26:04,VALID,917.051,VALID,0,VALID,96.764,VALID,0,VALID,18.9409,VALID,76,VALID,0.501562,
2012-06-01, 01:27:04,VALID,917.027,VALID,0,VALID,96.7411,VALID,0,VALID,18.9409,VALID,76,VALID,0.347266,
2012-06-01, 01:28:04,VALID,917.036,VALID,0,VALID,96.7107,VALID,0,VALID,18.9619,VALID,76,VALID,0.402734,
2012-06-01, 01:29:04,VALID,917.01,VALID,0,VALID,96.7183,VALID,0,VALID,18.9214,VALID,76,VALID,0.0214844,
2012-06-01, 01:30:04,VALID,917.009,VALID,0,VALID,96.703,VALID,0,VALID,18.9214,VALID,76,VALID,0,
2012-06-01, 01:31:04,VALID,916.999,VALID,0,VALID,96.6192,VALID,0,VALID,18.9229,VALID,76,VALID,0.124609,
2012-06-01, 01:32:04,VALID,916.939,VALID,0,VALID,96.5887,VALID,0,VALID,18.9019,VALID,76,VALID,0.673828,
2012-06-01, 01:33:04,VALID,916.955,VALID,0,VALID,96.5734,VALID,0,VALID,18.8824,VALID,76,VALID,0.605469,
2012-06-01, 01:34:04,VALID,916.914,VALID,0,VALID,96.5277,VALID,0,VALID,18.8824,VALID,76,VALID,0.886719,
2012-06-01, 01:35:04,VALID,916.899,VALID,0,VALID,96.4896,VALID,0,VALID,18.8629,VALID,76,VALID,1.05156,
2012-06-01, 01:36:04,VALID,916.874,VALID,0,VALID,96.4819,VALID,0,VALID,18.8824,VALID,76,VALID,0.800781,
2012-06-01, 01:37:04,VALID,916.864,VALID,0,VALID,96.421,VALID,0,VALID,18.9229,VALID,76,VALID,0.793359,
2012-06-01, 01:38:04,VALID,916.837,VALID,0,VALID,96.4362,VALID,0,VALID,18.9019,VALID,76,VALID,0.806641,
2012-06-01, 01:39:04,VALID,916.815,VALID,0,VALID,96.3829,VALID,0,VALID,18.9214,VALID,76,VALID,0.867969,
2012-06-01, 01:40:04,VALID,916.783,VALID,0,VALID,96.3371,VALID,0,VALID,18.9214,VALID,76,VALID,0.704687,
2012-06-01, 01:41:04,VALID,916.779,VALID,0,VALID,96.3066,VALID,0,VALID,18.9424,VALID,76,VALID,0.428125,
2012-06-01, 01:42:04,VALID,916.738,VALID,0,VALID,96.3066,VALID,0,VALID,18.9214,VALID,76,VALID,0.566406,
2012-06-01, 01:43:04,VALID,916.731,VALID,0,VALID,96.2685,VALID,0,VALID,18.9214,VALID,76,VALID,0.686328,
2012-06-01, 01:44:04,VALID,916.716,VALID,0,VALID,96.2609,VALID,0,VALID,18.9229,VALID,76,VALID,0.604297,
2012-06-01, 01:45:04,VALID,916.698,VALID,0,VALID,96.2761,VALID,0,VALID,18.9214,VALID,76,VALID,0.462109,
2012-06-01, 01:46:04,VALID,916.681,VALID,0,VALID,96.2761,VALID,0,VALID,18.9214,VALID,76,VALID,0.202734,
2012-06-01, 01:47:04,VALID,916.696,VALID,0,VALID,96.2456,VALID,0,VALID,18.9424,VALID,76,VALID,0,
2012-06-01, 01:48:04,VALID,916.672,VALID,0,VALID,96.2837,VALID,0,VALID,18.9409,VALID,76,VALID,0,
2012-06-01, 01:49:04,VALID,916.646,VALID,0,VALID,96.2228,VALID,0,VALID,18.9424,VALID,76,VALID,0,
2012-06-01, 01:50:04,VALID,916.685,VALID,0,VALID,96.1465,VALID,0,VALID,18.9214,VALID,76,VALID,0.319531,
2012-06-01, 01:51:04,VALID,916.617,VALID,0,VALID,96.1541,VALID,0,VALID,18.9229,VALID,76,VALID,0.0269531,
2012-06-01, 01:52:04,VALID,916.641,VALID,0,VALID,96.1618,VALID,0,VALID,18.9214,VALID,76,VALID,0,
2012-06-01, 01:53:04,VALID,916.612,VALID,0,VALID,96.116,VALID,0,VALID,18.9214,VALID,76,VALID,0.289063,
2012-06-01, 01:54:04,VALID,916.618,VALID,0,VALID,96.1236,VALID,0,VALID,18.8824,VALID,76,VALID,0.0667969,
2012-06-01, 01:55:04,VALID,916.595,VALID,0,VALID,96.1465,VALID,0,VALID,18.9034,VALID,76,VALID,0,
2012-06-01, 01:56:04,VALID,916.58,VALID,0,VALID,96.1923,VALID,0,VALID,18.9034,VALID,76,VALID,0,
2012-06-01, 01:57:04,VALID,916.541,VALID,0,VALID,96.1999,VALID,0,VALID,18.9019,VALID,76,VALID,0,
2012-06-01, 01:58:04,VALID,916.549,VALID,0,VALID,96.1923,VALID,0,VALID,18.8824,VALID,76,VALID,0,
2012-06-01, 01:59:04,VALID,916.516,VALID,0,VALID,96.1389,VALID,0,VALID,18.8824,VALID,76,VALID,0.0667969,
2012-06-01, 02:00:04,VALID,916.519,VALID,0,VALID,96.1008,VALID,0,VALID,18.9229,VALID,76,VALID,0.427734,
2012-06-01, 02:01:04,VALID,916.504,VALID,0,VALID,96.0322,VALID,0,VALID,18.9019,VALID,76,VALID,0.611719,
2012-06-01, 02:02:04,VALID,916.487,VALID,0,VALID,95.9636,VALID,0,VALID,18.9214,VALID,76,VALID,0.659766,
2012-06-01, 02:03:04,VALID,916.449,VALID,0,VALID,95.8492,VALID,0,VALID,18.9409,VALID,76,VALID,0.646094,
2012-06-01, 02:04:04,VALID,916.492,VALID,0,VALID,95.7501,VALID,0,VALID,19.0008,VALID,76,VALID,0.534766,
2012-06-01, 02:05:04,VALID,916.49,VALID,0,VALID,95.6739,VALID,0,VALID,18.9994,VALID,76,VALID,0.444922,
2012-06-01, 02:06:04,VALID,916.493,VALID,0,VALID,95.6662,VALID,0,VALID,18.9994,VALID,115,VALID,0.817187,
2012-06-01, 02:07:04,VALID,916.463,VALID,0,VALID,95.773,VALID,0,VALID,19.0203,VALID,139,VALID,0.636719,
2012-06-01, 02:08:04,VALID,916.462,VALID,0,VALID,95.8721,VALID,0,VALID,18.9799,VALID,139,VALID,0.555469,
2012-06-01, 02:09:04,VALID,916.444,VALID,0,VALID,95.9864,VALID,0,VALID,18.9799,VALID,139,VALID,1.16602,
2012-06-01, 02:10:04,VALID,916.439,VALID,0,VALID,96.1008,VALID,0,VALID,18.9799,VALID,139,VALID,0.796875,
2012-06-01, 02:11:04,VALID,916.416,VALID,0,VALID,96.2304,VALID,0,VALID,18.9604,VALID,139,VALID,0.899219,
2012-06-01, 02:12:04,VALID,916.452,VALID,0,VALID,96.3295,VALID,0,VALID,18.9409,VALID,139,VALID,0.542578,
2012-06-01, 02:13:04,VALID,916.433,VALID,0,VALID,96.4286,VALID,0,VALID,18.9409,VALID,124,VALID,0.885156,
2012-06-01, 02:14:04,VALID,916.433,VALID,0,VALID,96.4896,VALID,0,VALID,18.9409,VALID,124,VALID,0.732813,
2012-06-01, 02:15:04,VALID,916.432,VALID,0,VALID,96.5353,VALID,0,VALID,18.9409,VALID,124,VALID,0.285547,
2012-06-01, 02:16:04,VALID,916.41,VALID,0,VALID,96.5658,VALID,0,VALID,18.9005,VALID,124,VALID,0.264062,
2012-06-01, 02:17:04,VALID,916.407,VALID,0,VALID,96.5963,VALID,0,VALID,18.9214,VALID,124,VALID,0.320313,
2012-06-01, 02:18:04,VALID,916.398,VALID,0,VALID,96.642,VALID,0,VALID,18.9214,VALID,124,VALID,0.61875,
2012-06-01, 02:19:04,VALID,916.375,VALID,0,VALID,96.6649,VALID,0,VALID,18.9034,VALID,124,VALID,0.609766,
2012-06-01, 02:20:04,VALID,916.345,VALID,0,VALID,96.703,VALID,0,VALID,18.8824,VALID,124,VALID,0.388672,
2012-06-01, 02:21:04,VALID,916.326,VALID,0,VALID,96.7564,VALID,0,VALID,18.8629,VALID,124,VALID,0,
2012-06-01, 02:22:04,VALID,916.329,VALID,0,VALID,96.8174,VALID,0,VALID,18.9019,VALID,124,VALID,0,
2012-06-01, 02:23:04,VALID,916.318,VALID,0,VALID,96.825,VALID,0,VALID,18.9019,VALID,124,VALID,0,
2012-06-01, 02:24:04,VALID,916.322,VALID,0,VALID,96.8784,VALID,0,VALID,18.9229,VALID,124,VALID,0,
2012-06-01, 02:25:04,VALID,916.273,VALID,0,VALID,96.886,VALID,0,VALID,18.9229,VALID,124,VALID,0,
2012-06-01, 02:26:04,VALID,916.24,VALID,0,VALID,96.8707,VALID,0,VALID,18.9019,VALID,124,VALID,0,
2012-06-01, 02:27:04,VALID,916.225,VALID,0,VALID,96.8784,VALID,0,VALID,18.9019,VALID,124,VALID,0,
2012-06-01, 02:28:04,VALID,916.207,VALID,0,VALID,96.9165,VALID,0,VALID,18.8824,VALID,124,VALID,0,
2012-06-01, 02:29:04,VALID,916.223,VALID,0,VALID,96.9317,VALID,0,VALID,18.9019,VALID,124,VALID,0,
2012-06-01, 02:30:04,VALID,916.201,VALID,0,VALID,96.947,VALID,0,VALID,18.8824,VALID,124,VALID,0,
2012-06-01, 02:31:04,VALID,916.191,VALID,0,VALID,96.9394,VALID,0,VALID,18.9019,VALID,124,VALID,0,
2012-06-01, 02:32:04,VALID,916.183,VALID,0,VALID,96.9241,VALID,0,VALID,18.8839,VALID,124,VALID,0,
2012-06-01, 02:33:04,VALID,916.165,VALID,0,VALID,96.9241,VALID,0,VALID,18.8629,VALID,124,VALID,0,
2012-06-01, 02:34:04,VALID,916.161,VALID,0,VALID,96.9165,VALID,0,VALID,18.8644,VALID,124,VALID,0,
2012-06-01, 02:35:04,VALID,916.101,VALID,0,VALID,96.9241,VALID,0,VALID,18.8434,VALID,124,VALID,0.239063,
2012-06-01, 02:36:04,VALID,916.068,VALID,0,VALID,96.9546,VALID,0,VALID,18.8644,VALID,124,VALID,0.591406,
2012-06-01, 02:37:04,VALID,916.046,VALID,0,VALID,96.947,VALID,0,VALID,18.8629,VALID,124,VALID,0.726953,
2012-06-01, 02:38:04,VALID,916.049,VALID,0,VALID,96.9851,VALID,0,VALID,18.8824,VALID,124,VALID,0.279297,
2012-06-01, 02:39:04,VALID,916.029,VALID,0,VALID,96.9927,VALID,0,VALID,18.8824,VALID,124,VALID,0.00195313,
2012-06-01, 02:40:04,VALID,915.997,VALID,0,VALID,96.9089,VALID,0,VALID,18.9034,VALID,124,VALID,0,
2012-06-01, 02:41:04,VALID,916.002,VALID,0,VALID,96.9089,VALID,0,VALID,18.8434,VALID,124,VALID,0.283203,
2012-06-01, 02:42:04,VALID,915.99,VALID,0,VALID,96.8631,VALID,0,VALID,18.824,VALID,124,VALID,0.714844,
2012-06-01, 02:43:04,VALID,915.987,VALID,0,VALID,96.8326,VALID,0,VALID,18.785,VALID,73,VALID,1.06719,
2012-06-01, 02:44:04,VALID,915.966,VALID,0,VALID,96.9012,VALID,0,VALID,18.8254,VALID,73,VALID,1.11445,
2012-06-01, 02:45:04,VALID,916,VALID,0,VALID,96.8784,VALID,0,VALID,18.8045,VALID,73,VALID,0.816797,
2012-06-01, 02:46:04,VALID,915.964,VALID,0,VALID,96.8403,VALID,0,VALID,18.785,VALID,73,VALID,0.544531,
2012-06-01, 02:47:04,VALID,915.957,VALID,0,VALID,96.8479,VALID,0,VALID,18.7655,VALID,73,VALID,0.665234,
2012-06-01, 02:48:04,VALID,915.975,VALID,0,VALID,96.8098,VALID,0,VALID,18.8045,VALID,73,VALID,0.845703,
2012-06-01, 02:49:04,VALID,915.972,VALID,0,VALID,96.8021,VALID,0,VALID,18.785,VALID,73,VALID,0.752344,
2012-06-01, 02:50:04,VALID,915.941,VALID,0,VALID,96.7869,VALID,0,VALID,18.8045,VALID,73,VALID,1.1375,
2012-06-01, 02:51:04,VALID,915.906,VALID,0,VALID,96.7793,VALID,0,VALID,18.785,VALID,73,VALID,1.02578,
2012-06-01, 02:52:04,VALID,915.917,VALID,0,VALID,96.764,VALID,0,VALID,18.785,VALID,84,VALID,0.949609,
2012-06-01, 02:53:04,VALID,915.923,VALID,0,VALID,96.7564,VALID,0,VALID,18.824,VALID,103,VALID,0.580078,
2012-06-01, 02:54:04,VALID,915.907,VALID,0,VALID,96.7335,VALID,0,VALID,18.824,VALID,103,VALID,0.570313,
2012-06-01, 02:55:04,VALID,915.892,VALID,0,VALID,96.703,VALID,0,VALID,18.824,VALID,103,VALID,0.127344,
2012-06-01, 02:56:04,VALID,915.871,VALID,0,VALID,96.7107,VALID,0,VALID,18.8434,VALID,103,VALID,0,
2012-06-01, 02:57:04,VALID,915.88,VALID,0,VALID,96.703,VALID,0,VALID,18.824,VALID,103,VALID,0.345313,
2012-06-01, 02:58:04,VALID,915.852,VALID,0,VALID,96.7107,VALID,0,VALID,18.8225,VALID,103,VALID,0.312891,
2012-06-01, 02:59:04,VALID,915.869,VALID,0,VALID,96.7564,VALID,0,VALID,18.8839,VALID,103,VALID,0.021875,
2012-06-01, 03:00:04,VALID,915.824,VALID,0,VALID,96.7564,VALID,0,VALID,18.8824,VALID,103,VALID,0.371875,
2012-06-01, 03:01:04,VALID,915.816,VALID,0,VALID,96.6725,VALID,0,VALID,18.9034,VALID,103,VALID,0.509766,
2012-06-01, 03:02:04,VALID,915.832,VALID,0,VALID,96.6573,VALID,0,VALID,18.8434,VALID,103,VALID,0.601172,
2012-06-01, 03:03:04,VALID,915.826,VALID,0,VALID,96.703,VALID,0,VALID,18.8434,VALID,103,VALID,0.747266,
2012-06-01, 03:04:04,VALID,915.8,VALID,0,VALID,96.7183,VALID,0.107441,VALID,18.8434,VALID,103,VALID,0.766016,
2012-06-01, 03:05:04,VALID,915.754,VALID,0,VALID,96.7259,VALID,0.107441,VALID,18.8644,VALID,103,VALID,0.773047,
2012-06-01, 03:06:04,VALID,915.724,VALID,0,VALID,96.7488,VALID,0,VALID,18.8434,VALID,103,VALID,0.84375,
2012-06-01, 03:07:04,VALID,915.707,VALID,0,VALID,96.7488,VALID,0,VALID,18.8629,VALID,103,VALID,0.820703,
2012-06-01, 03:08:04,VALID,915.706,VALID,0,VALID,96.6954,VALID,0,VALID,18.8629,VALID,103,VALID,0.828516,
2012-06-01, 03:09:04,VALID,915.723,VALID,0,VALID,96.6039,VALID,0,VALID,18.8824,VALID,103,VALID,0.526953,
2012-06-01, 03:10:04,VALID,915.718,VALID,0,VALID,96.5811,VALID,0,VALID,18.8824,VALID,103,VALID,0.50625,
2012-06-01, 03:11:04,VALID,915.73,VALID,0,VALID,96.5734,VALID,0,VALID,18.8839,VALID,103,VALID,0.327734,
2012-06-01, 03:12:04,VALID,915.713,VALID,0,VALID,96.5658,VALID,0,VALID,18.8629,VALID,103,VALID,0.451172,
2012-06-01, 03:13:04,VALID,915.702,VALID,0,VALID,96.5429,VALID,0,VALID,18.8434,VALID,103,VALID,0.725391,
2012-06-01, 03:14:04,VALID,915.664,VALID,0,VALID,96.5201,VALID,0,VALID,18.8434,VALID,103,VALID,0.942969,
2012-06-01, 03:15:04,VALID,915.666,VALID,0,VALID,96.4896,VALID,0,VALID,18.8644,VALID,103,VALID,1.19375,
2012-06-01, 03:16:04,VALID,915.641,VALID,0,VALID,96.4591,VALID,0,VALID,18.8434,VALID,103,VALID,1.01953,
2012-06-01, 03:17:04,VALID,915.627,VALID,0,VALID,96.4133,VALID,0,VALID,18.842,VALID,103,VALID,0.719531,
2012-06-01, 03:18:04,VALID,915.606,VALID,0,VALID,96.3905,VALID,0,VALID,18.8629,VALID,108,VALID,1.05234,
2012-06-01, 03:19:04,VALID,915.589,VALID,0,VALID,96.36,VALID,0,VALID,18.8839,VALID,120,VALID,0.83125,
2012-06-01, 03:20:04,VALID,915.586,VALID,0,VALID,96.36,VALID,0,VALID,18.8839,VALID,120,VALID,0.996875,
2012-06-01, 03:21:04,VALID,915.515,VALID,0,VALID,96.3524,VALID,0,VALID,18.8629,VALID,136,VALID,0.697266,
2012-06-01, 03:22:04,VALID,915.47,VALID,0,VALID,96.3676,VALID,0,VALID,18.8824,VALID,136,VALID,0.982031,
2012-06-01, 03:23:04,VALID,915.425,VALID,0,VALID,96.3905,VALID,0.107441,VALID,18.8824,VALID,136,VALID,1.00156,
2012-06-01, 03:24:04,VALID,915.417,VALID,0,VALID,96.4515,VALID,0,VALID,18.8824,VALID,136,VALID,0.650781,
2012-06-01, 03:25:04,VALID,915.415,VALID,0,VALID,96.5048,VALID,0,VALID,18.8839,VALID,136,VALID,0.876172,
2012-06-01, 03:26:04,VALID,915.394,VALID,0,VALID,96.5429,VALID,0,VALID,18.8629,VALID,136,VALID,0.882422,
2012-06-01, 03:27:04,VALID,915.423,VALID,0,VALID,96.5734,VALID,0,VALID,18.842,VALID,136,VALID,0.596484,
2012-06-01, 03:28:04,VALID,915.381,VALID,0,VALID,96.642,VALID,0,VALID,18.8824,VALID,136,VALID,0.474219,
2012-06-01, 03:29:04,VALID,915.332,VALID,0,VALID,96.6344,VALID,0,VALID,18.8629,VALID,136,VALID,0.372656,
2012-06-01, 03:30:04,VALID,915.307,VALID,0,VALID,96.6115,VALID,0,VALID,18.8629,VALID,136,VALID,0.703906,
2012-06-01, 03:31:04,VALID,915.3,VALID,0,VALID,96.6115,VALID,0,VALID,18.8839,VALID,136,VALID,0.248437,
2012-06-01, 03:32:04,VALID,915.301,VALID,0,VALID,96.6115,VALID,0.107441,VALID,18.8629,VALID,136,VALID,0.130469,
2012-06-01, 03:33:04,VALID,915.295,VALID,0,VALID,96.6344,VALID,0.107441,VALID,18.8629,VALID,136,VALID,0.157422,
2012-06-01, 03:34:04,VALID,915.287,VALID,0,VALID,96.6268,VALID,0,VALID,18.8629,VALID,136,VALID,0.339063,
2012-06-01, 03:35:04,VALID,915.26,VALID,0,VALID,96.5887,VALID,0,VALID,18.8629,VALID,136,VALID,0.338672,
2012-06-01, 03:36:04,VALID,915.259,VALID,0,VALID,96.5963,VALID,0,VALID,18.9214,VALID,136,VALID,0.744922,
2012-06-01, 03:37:04,VALID,915.228,VALID,0,VALID,96.4362,VALID,0,VALID,18.9409,VALID,136,VALID,0.515625,
2012-06-01, 03:38:04,VALID,915.242,VALID,0,VALID,96.3219,VALID,0,VALID,18.9604,VALID,136,VALID,0.434375,
2012-06-01, 03:39:04,VALID,915.223,VALID,0,VALID,96.1618,VALID,0,VALID,18.9799,VALID,136,VALID,0.672656,
2012-06-01, 03:40:04,VALID,915.241,VALID,0,VALID,96.0169,VALID,0,VALID,19.0384,VALID,136,VALID,0.130078,
2012-06-01, 03:41:04,VALID,915.225,VALID,0,VALID,95.834,VALID,0,VALID,19.0774,VALID,136,VALID,0.494531,
2012-06-01, 03:42:04,VALID,915.224,VALID,0,VALID,95.5824,VALID,0,VALID,19.1164,VALID,136,VALID,0.605859,
2012-06-01, 03:43:04,VALID,915.237,VALID,0,VALID,95.3232,VALID,0,VALID,19.1164,VALID,136,VALID,0.454688,
2012-06-01, 03:44:04,VALID,915.277,VALID,0,VALID,95.186,VALID,0,VALID,19.1359,VALID,136,VALID,0.00117188,
2012-06-01, 03:45:04,VALID,915.28,VALID,0,VALID,95.0183,VALID,0,VALID,19.1164,VALID,136,VALID,0.245703,
2012-06-01, 03:46:04,VALID,915.284,VALID,0,VALID,94.9649,VALID,0,VALID,19.1164,VALID,136,VALID,0.9625,
2012-06-01, 03:47:04,VALID,915.342,VALID,0,VALID,94.9954,VALID,0,VALID,19.0759,VALID,136,VALID,0.743359,